Location: Newark
(25.0000°N, 73.5000°E)
Time: 16:59:36
(UTC+00:00)

Explorer 11/Cluster Stage 4 - All Passes

Search period start: 26 February 2021 00:00
Search period end: 08 March 2021 00:00
Orbit: 467 x 1257 km, 28.8° (Epoch: 25 February)

Date Brightness Start Highest point End Pass type
(mag) Time Alt. Az. Time Alt. Az. Time Alt. Az.
26 Feb - 00:01:59 10° WSW 00:09:16 65° SSE 00:17:25 10° ENE visible
26 Feb - 01:50:50 10° W 01:58:50 75° N 02:07:04 10° ENE daylight
26 Feb - 03:40:33 10° WNW 03:48:49 68° N 03:56:33 10° E daylight
26 Feb - 05:30:22 10° WNW 05:38:31 84° SSW 05:45:32 10° ESE daylight
26 Feb - 07:20:42 10° W 07:27:18 34° SSW 07:32:54 10° SSE daylight
26 Feb - 22:04:04 10° SSW 22:09:25 27° SSE 22:15:33 10° E visible
26 Feb - 23:50:57 10° WSW 23:58:06 71° SSE 00:06:16 10° ENE visible
27 Feb - 01:39:50 10° W 01:47:42 72° N 01:55:59 10° ENE daylight
27 Feb - 03:29:27 10° WNW 03:37:42 70° N 03:45:35 10° E daylight
27 Feb - 05:19:10 10° WNW 05:27:23 77° SSW 05:34:34 10° ESE daylight
27 Feb - 07:09:39 10° W 07:16:09 30° SSW 07:21:45 10° SSE daylight
27 Feb - 21:52:52 10° SSW 21:58:15 30° SSE 22:04:34 10° E visible
27 Feb - 23:39:58 10° WSW 23:46:57 78° SSE 23:55:04 10° ENE visible
28 Feb - 01:28:52 10° W 01:36:35 70° N 01:44:52 10° ENE daylight
28 Feb - 03:18:22 10° WNW 03:26:34 73° N 03:34:35 10° E daylight
28 Feb - 05:08:00 10° WNW 05:16:13 71° SSW 05:23:34 10° ESE daylight
28 Feb - 06:58:39 10° W 07:04:57 27° SSW 07:10:30 10° SSE daylight
28 Feb - 21:41:43 10° SSW 21:47:05 34° SSE 21:53:31 10° E visible
28 Feb - 23:29:02 10° WSW 23:35:49 84° SSE 23:43:52 10° ENE visible
01 Mar - 01:17:55 10° W 01:25:29 68° N 01:33:44 10° E daylight
01 Mar - 03:07:17 10° WNW 03:15:26 76° N 03:23:33 10° E daylight
01 Mar - 04:56:51 10° WNW 05:05:01 64° SSW 05:12:30 10° ESE daylight
01 Mar - 06:47:43 10° W 06:53:45 24° SW 06:59:09 10° SSE daylight
01 Mar - 21:30:39 10° SW 21:35:58 38° SSE 21:42:25 10° E visible
01 Mar - 23:18:09 10° WSW 23:24:43 90° NNW 23:32:39 10° ENE visible
02 Mar - 01:07:00 10° W 01:14:23 67° N 01:22:36 10° E visible
02 Mar - 02:56:13 10° WNW 03:04:17 79° NNE 03:12:30 10° E daylight
02 Mar - 04:45:43 10° W 04:53:49 58° SSW 05:01:22 10° SE daylight
02 Mar - 06:36:53 10° W 06:42:31 21° SW 06:47:43 10° S daylight
02 Mar - 21:19:39 10° SW 21:24:51 43° SSE 21:31:18 10° E visible
02 Mar - 23:07:17 10° WSW 23:13:39 84° NNW 23:21:25 10° ENE visible
03 Mar - 00:56:06 10° W 01:03:17 66° N 01:11:28 10° E visible
03 Mar - 02:45:10 10° WNW 02:53:08 83° NNE 03:01:25 10° ESE daylight
03 Mar - 04:34:38 10° W 04:42:35 52° SSW 04:50:11 10° SE daylight
03 Mar - 06:26:10 10° WSW 06:31:18 18° SW 06:36:08 10° S daylight
03 Mar - 19:24:38 10° SSE 19:26:01 11° SE 19:27:27 10° SE night (unlit)
03 Mar - 21:08:42 10° SW 21:13:47 48° SSE 21:20:09 10° E visible
03 Mar - 22:56:28 10° W 23:02:36 78° NNW 23:10:11 10° ENE visible
04 Mar - 00:45:12 10° W 00:52:13 66° N 01:00:18 10° E visible
04 Mar - 02:34:08 10° WNW 02:41:58 88° NNE 02:50:17 10° ESE daylight
04 Mar - 04:23:36 10° W 04:31:21 47° SSW 04:38:55 10° SE daylight
04 Mar - 06:15:36 10° WSW 06:20:05 16° SW 06:24:22 10° S daylight
04 Mar - 19:12:49 10° S 19:14:57 13° SE 19:17:15 10° ESE night (unlit)
04 Mar - 20:57:48 10° SW 21:02:45 54° SSE 21:09:00 10° E visible
04 Mar - 22:45:41 10° W 22:51:35 73° N 22:58:58 10° ENE visible
05 Mar - 00:34:20 10° WNW 00:41:08 66° N 00:49:09 10° E visible
05 Mar - 02:23:08 10° WNW 02:30:48 86° SSW 02:39:07 10° ESE daylight
05 Mar - 04:12:37 10° W 04:20:07 41° SSW 04:27:36 10° SE daylight
05 Mar - 06:05:21 10° WSW 06:08:52 13° SW 06:12:19 10° S daylight
05 Mar - 19:01:21 10° S 19:03:55 15° SE 19:06:44 10° ESE night (unlit)
05 Mar - 20:46:56 10° WSW 20:51:45 61° SSE 20:57:50 10° ENE visible
05 Mar - 22:34:55 10° W 22:40:36 69° N 22:47:44 10° ENE visible
06 Mar - 00:23:28 10° WNW 00:30:05 67° N 00:37:58 10° E visible
06 Mar - 02:12:10 10° WNW 02:19:37 80° SSW 02:27:55 10° ESE daylight
06 Mar - 04:01:41 10° W 04:08:52 37° SSW 04:16:12 10° SE daylight
06 Mar - 05:55:42 10° SW 05:57:40 11° SW 05:59:37 10° SSW daylight
06 Mar - 18:50:03 10° S 18:52:53 17° SSE 18:56:04 10° ESE night (unlit)
06 Mar - 20:36:08 10° WSW 20:40:46 70° SSE 20:46:41 10° ENE night (unlit)
06 Mar - 22:24:10 10° W 22:29:38 65° N 22:36:32 10° ENE visible
07 Mar - 00:12:37 10° WNW 00:19:02 69° N 00:26:47 10° E visible
07 Mar - 02:01:13 10° WNW 02:08:28 73° SSW 02:16:40 10° ESE daylight
07 Mar - 03:50:50 10° W 03:57:39 32° SSW 04:04:42 10° SSE daylight
07 Mar - 18:38:52 10° SSW 18:41:54 20° SSE 18:45:19 10° E night (unlit)
07 Mar - 20:25:20 10° WSW 20:29:50 79° SSE 20:35:32 10° ENE night (unlit)
07 Mar - 22:13:27 10° W 22:18:41 62° N 22:25:19 10° ENE visible
